Port Hedland, Australia

4:04 AM AWST on July 24, 2017 (GMT +0800)
Port Hedland International

Weather History for YPPD - December, 2012

Change the Weather History Date:

Friday, December 21, 2012

  Actual Average Record
Temperature  
Mean Temperature 91 °F -  
Max Temperature 99 °F 97 °F 100 °F (2011)
Min Temperature 83 °F 77 °F 75 °F (1999)
Cooling Degree Days 26    
Growing Degree Days 41 (Base 50)    
Moisture  
Dew Point 74 °F    
Average Humidity 60    
Maximum Humidity 84    
Minimum Humidity 30    
Precipitation  
Precipitation 0.00 in 0.07 in - ()
Sea Level Pressure  
Sea Level Pressure 29.69 in    
Wind  
Wind Speed 10 mph ()    
Max Wind Speed 22 mph    
Max Gust Speed -    
Visibility 4.8 miles    
Events      
Averages and records for this station are not official NWS values.
T = Trace of Precipitation, MM = Missing Value Source: Averaged Metar Reports

Daily Weather History Graph

Daily Weather History Graph

Search for Another Location

Airport or City:

Trip Planner

Search our weather history database for the weather conditions in past years. The results will help you decide how hot, cold, wet, or windy it might be!

Date:

Astronomy

Dec. 21, 2012 Rise Set
Actual Time 5:22 AM AWST 6:44 PM AWST
Civil Twilight 4:57 AM AWST 7:09 PM AWST
Nautical Twilight 4:28 AM AWST 7:38 PM AWST
Astronomical Twilight 3:58 AM AWST 8:09 PM AWST
Moon 12:52 PM AWST (12/21) 12:08 AM AWST (12/21)
Length of Visible Light 14h 11m
Length of Day
13h 22m
First Quarter, 59% of the Moon is Illuminated
Dec 21
First Quarter
Dec 28
Full
Jan 5
Last Quarter
Jan 12
New
Jan 19
First Quarter

Hourly Weather History & Observations

Time (AWST) Temp. Heat Index Dew Point Humidity Pressure Visibility Wind Dir Wind Speed Gust Speed Precip Events Conditions
12:00 AM 86 °F - 70 °F 51% 29.73 in 1 mi South 15.0 mph - -  
12:00 AM 86.0 °F 90.4 °F 69.8 °F 58% 29.71 in 1.1 mi South 15.0 mph - N/A   Mostly Cloudy
12:12 AM 86.0 °F 90.4 °F 69.8 °F 58% 29.71 in 0.8 mi South 10.4 mph - N/A   Mostly Cloudy
12:30 AM 86.0 °F 89.4 °F 68.0 °F 55% 29.71 in 0.9 mi South 6.9 mph - N/A   Overcast
1:00 AM 86.0 °F 89.4 °F 68.0 °F 55% 29.71 in 1.1 mi WSW 4.6 mph - N/A   Overcast
1:25 AM 84.2 °F 87.3 °F 68.0 °F 58% 29.71 in 1.1 mi West 5.8 mph - N/A   Scattered Clouds
1:30 AM 84.2 °F 87.3 °F 68.0 °F 58% 29.71 in 1.1 mi WNW 5.8 mph - N/A   Scattered Clouds
2:00 AM 83 °F - 70 °F 56% 29.70 in - NW 6.9 mph - -  
2:00 AM 84.2 °F 88.4 °F 69.8 °F 62% 29.68 in 1.0 mi NW 6.9 mph - N/A   Unknown
2:30 AM 84.2 °F 89.6 °F 71.6 °F 66% 29.68 in 0.9 mi NW 8.1 mph - N/A   Scattered Clouds
3:00 AM 83 °F - 74 °F 68% 29.69 in 1 mi NNW 8.1 mph - -  
3:00 AM 84.2 °F 90.9 °F 73.4 °F 70% 29.68 in 1.1 mi NNW 8.1 mph - N/A   Unknown
3:30 AM 84.2 °F 94.1 °F 77.0 °F 79% 29.68 in 1.7 mi NW 9.2 mph - N/A   Unknown
4:00 AM 84.2 °F 94.1 °F 77.0 °F 79% 29.68 in 3.1 mi NW 8.1 mph - N/A   Unknown
4:30 AM 84.2 °F 94.1 °F 77.0 °F 79% 29.68 in 4.3 mi NW 8.1 mph - N/A   Unknown
4:31 AM 84.2 °F 94.1 °F 77.0 °F 79% 29.68 in 4.3 mi WNW 8.1 mph - N/A   Unknown
5:00 AM 84 °F - 78 °F 76% 29.70 in - West 5.8 mph - -  
5:00 AM 84.2 °F 94.1 °F 77.0 °F 79% 29.68 in 6.2 mi West 5.8 mph - N/A   Unknown
5:18 AM 84.2 °F 92.3 °F 75.2 °F 74% 29.71 in 3.7 mi SSW 9.2 mph - N/A   Unknown
5:30 AM 84.2 °F 92.3 °F 75.2 °F 74% 29.71 in 4.3 mi SW 9.2 mph - N/A   Unknown
5:38 AM 84.2 °F 92.3 °F 75.2 °F 74% 29.71 in 5.0 mi SW 9.2 mph - N/A   Unknown
6:00 AM 84 °F - 72 °F 61% 29.74 in 5 mi SSW 8.1 mph - -  
6:00 AM 84.2 °F 90.9 °F 73.4 °F 70% 29.74 in 5.0 mi SSW 8.1 mph - N/A   Unknown
6:30 AM 84.2 °F 88.4 °F 69.8 °F 62% 29.74 in 6.2 mi WSW 4.6 mph - N/A   Unknown
7:00 AM 86.0 °F 90.4 °F 69.8 °F 58% 29.74 in 6.2 mi West 4.6 mph - N/A   Unknown
7:30 AM 87.8 °F 92.6 °F 69.8 °F 55% 29.74 in 6.2 mi WSW 4.6 mph - N/A   Unknown
8:00 AM 92 °F - 70 °F 39% 29.75 in - West 2.3 mph - -  
8:00 AM 91.4 °F 96.8 °F 69.8 °F 49% 29.74 in 6.2 mi West 2.3 mph - N/A   Unknown
8:30 AM 95.0 °F 101.3 °F 69.8 °F 44% 29.74 in 6.2 mi SW 5.8 mph - N/A   Unknown
9:00 AM 96 °F - 68 °F 30% 29.74 in - SW 4.6 mph - -  
9:00 AM 95.0 °F 99.5 °F 68.0 °F 41% 29.74 in 6.2 mi SW 4.6 mph - N/A   Unknown
9:30 AM 96.8 °F 105.1 °F 71.6 °F 44% 29.74 in 6.2 mi NW 3.5 mph - N/A   Unknown
10:00 AM 98.6 °F 109.2 °F 73.4 °F 44% 29.71 in 6.2 mi NNW 8.1 mph - N/A   Unknown
10:30 AM 96.8 °F 114.8 °F 78.8 °F 56% 29.71 in 6.2 mi NNW 13.8 mph - N/A   Unknown
11:00 AM 98 °F - 77 °F 42% 29.72 in - NNW 13.8 mph - -  
11:00 AM 98.6 °F 114.4 °F 77.0 °F 50% 29.71 in 6.2 mi NNW 13.8 mph - N/A   Unknown
11:30 AM 96.8 °F 112.2 °F 77.0 °F 53% 29.71 in 6.2 mi NW 17.3 mph - N/A   Unknown
12:00 PM 96 °F - 77 °F 46% 29.70 in - NNW 16.1 mph - -  
12:00 PM 96.8 °F 112.2 °F 77.0 °F 53% 29.68 in 6.2 mi NNW 16.1 mph - N/A   Unknown
12:30 PM 98.6 °F 114.4 °F 77.0 °F 50% 29.68 in 6.2 mi NNW 17.3 mph - N/A   Unknown
1:00 PM 96.8 °F 112.2 °F 77.0 °F 53% 29.65 in 6.2 mi NNW 18.4 mph - N/A   Unknown
1:30 PM 95.0 °F 109.7 °F 77.0 °F 56% 29.65 in 6.2 mi NW 18.4 mph - N/A   Unknown
2:00 PM 95 °F - 77 °F 47% 29.65 in - NNW 19.6 mph - -  
2:00 PM 95.0 °F 109.7 °F 77.0 °F 56% 29.65 in 6.2 mi NNW 19.6 mph - N/A   Unknown
2:30 PM 95.0 °F 109.7 °F 77.0 °F 56% 29.62 in 6.2 mi NNW 20.7 mph - N/A   Unknown
3:00 PM 93 °F - 77 °F 52% 29.63 in - NW 21.9 mph - -  
3:00 PM 93.2 °F 107.2 °F 77.0 °F 59% 29.62 in 6.2 mi NW 21.9 mph - N/A   Unknown
3:30 PM 95.0 °F 107.4 °F 75.2 °F 53% 29.59 in 6.2 mi NW 21.9 mph - N/A   Unknown
4:00 PM 93.2 °F 107.2 °F 77.0 °F 59% 29.59 in 6.2 mi NNW 21.9 mph - N/A   Unknown
4:30 PM 93.2 °F 105.0 °F 75.2 °F 56% 29.62 in 6.2 mi NW 19.6 mph - N/A   Unknown
5:00 PM 91 °F - 75 °F 51% 29.63 in - NW 16.1 mph - -  
5:00 PM 91.4 °F 102.5 °F 75.2 °F 59% 29.62 in 6.2 mi NW 16.1 mph - N/A   Unknown
5:30 PM 91.4 °F 102.5 °F 75.2 °F 59% 29.65 in 6.2 mi WNW 13.8 mph - N/A   Unknown
6:00 PM 90 °F - 74 °F 50% 29.64 in - WNW 15.0 mph - -  
6:00 PM 89.6 °F 98.2 °F 73.4 °F 59% 29.62 in 6.2 mi WNW 15.0 mph - N/A   Unknown
6:30 PM 89.6 °F 98.2 °F 73.4 °F 59% 29.68 in 6.2 mi WNW 11.5 mph - N/A   Scattered Clouds
7:00 PM 87.8 °F 95.6 °F 73.4 °F 62% 29.68 in 6.2 mi WNW 8.1 mph - N/A   Unknown
7:30 PM 87.8 °F 95.6 °F 73.4 °F 62% 29.68 in 6.2 mi NNW 4.6 mph - N/A   Unknown
8:00 PM 88 °F - 74 °F 54% 29.70 in - NNE 8.1 mph - -  
8:00 PM 87.8 °F 95.6 °F 73.4 °F 62% 29.68 in 6.2 mi NNE 8.1 mph - N/A   Unknown
8:30 PM 87.8 °F 97.6 °F 75.2 °F 66% 29.68 in 6.2 mi NW 9.2 mph - N/A   Unknown
9:00 PM 87 °F - 78 °F 68% 29.70 in - WNW 15.0 mph - -  
9:00 PM 86.0 °F 99.3 °F 78.8 °F 79% 29.68 in 6.2 mi WNW 15.0 mph - N/A   Unknown
9:30 PM 86.0 °F 96.9 °F 77.0 °F 74% 29.71 in 6.2 mi WNW 13.8 mph - N/A   Unknown
10:00 PM 86.0 °F 96.9 °F 77.0 °F 74% 29.71 in 6.2 mi West 10.4 mph - N/A   Unknown
10:30 PM 86.0 °F 96.9 °F 77.0 °F 74% 29.71 in 6.2 mi WNW 9.2 mph - N/A   Unknown
11:00 PM 85 °F - 78 °F 74% 29.69 in - West 12.7 mph - -  
11:00 PM 86.0 °F 99.3 °F 78.8 °F 79% 29.68 in 6.2 mi West 12.7 mph - N/A   Unknown
11:30 PM 84.2 °F 96.1 °F 78.8 °F 84% 29.68 in 6.2 mi West 10.4 mph - N/A   Unknown